Regional Weather Roundup
Issued by NWS Upton, NY

Current Version | Previous Version | Text Only | Print | Product List | Glossary On
Versions: 1 2 3 4 5 6 7 8 9 10 11 12 13 14 15 16 17 18 19 20 21 22 23 24 25 26 27 28 29 30 31 32 33 34 35 36 37 38 39 40 41 42 43 44 45 46 47 48 49 50
000
ASUS41 KOKX 131305
RWROKX

REGIONAL WEATHER ROUNDUP
NATIONAL WEATHER SERVICE NEW YORK NY
900 AM EDT SUN JUL 13 2014

NOTE: "FAIR" INDICATES FEW OR NO CLOUDS BELOW 12,000 FEET WITH NO
SIGNIFICANT WEATHER AND/OR OBSTRUCTIONS TO VISIBILITY.

NYZ071-072-176-178-NJZ106-104-131400-
NEW YORK CITY METRO AREA


CITY           SKY/WX    TMP DP  RH WIND       PRES   REMARKS
CENTRAL PARK   CLOUDY    75  66  73 W6        30.11S
LAGUARDIA APRT PTSUNNY   75  66  73 S9        30.08S
KENNEDY INTL   PTSUNNY   74  68  81 S12       30.10S
NEWARK/LIBERTY CLOUDY    75  68  78 S8        30.08S
BRNX BOT. GARD   N/A     77  66  69 E3        30.10F
TETERBORO      CLOUDY    77  67  71 S8        30.07S
$$

NYZ177-179-078>081-131400-
LONG ISLAND NEW YORK

CITY           SKY/WX    TMP DP  RH WIND       PRES   REMARKS
FARMINGDALE    CLOUDY    73  69  87 S13       30.10S
ISLIP          PTSUNNY   75  68  78 SW9       30.09S
SHIRLEY        PTSUNNY   73  69  87 S12       30.11F
WESTHAMPTON    MOSUNNY   73  67  81 S7G17     30.12F
MONTAUK POINT    N/A     73  68  84 VRB7      30.13S
$$

NYZ052-065-067-131400-
HUDSON VALLEY

CITY           SKY/WX    TMP DP  RH WIND       PRES   REMARKS
WHITE PLAINS   PTSUNNY   73  67  81 S8        30.08F
NEWBURGH       CLOUDY    73  68  83 S7        30.06F
MONTGOMERY     CLOUDY    73  67  81 SW5       30.04F
POUGHKEEPSIE   CLOUDY    74  66  76 S6        30.03F
ALBANY         PTSUNNY   73  64  73 S15       29.99F
$$

NJZ001-105-106-008-010-013-015-019>022-104-131400-
NEW JERSEY

CITY           SKY/WX    TMP DP  RH WIND       PRES   REMARKS
NEWARK/LIBERTY CLOUDY    75  68  78 S8        30.08S
TETERBORO      CLOUDY    77  67  71 S8        30.07S
CALDWELL       CLOUDY    73  68  84 SW3       30.08F
MORRISTOWN     CLOUDY    73  68  83 SW6       30.08S
SOMERVILLE     CLOUDY    73  68  84 S3        30.06F
LINDEN         CLOUDY    76  68  75 W5        30.10S
SUSSEX         CLOUDY    74  69  85 SW5       30.05F
ANDOVER          N/A     71  68  90 S6        30.07F
TRENTON        CLOUDY    73  68  84 S5        30.08S
MILLVILLE      PTSUNNY   75  71  87 VRB7      30.09F
ATLANTIC CITY  MOSUNNY   76  69  79 S9        30.09F
WRIGHTSTOWN    PTSUNNY   75  69  80 SW13      30.07S
TOMS RIVER     MOSUNNY   79  70  73 S9        30.09S
BELMAR         MOSUNNY   77  66  69 SW10G16   30.09S
$$

PAZ047>061-062-071-131400-
EASTERN PENNSYLVANIA

CITY           SKY/WX    TMP DP  RH WIND       PRES   REMARKS
PHILADELPHIA   LGT RAIN  74  68  81 S6        30.08S
ALLENTOWN      CLOUDY    76  69  79 S10       30.05F
SCRANTON       PTSUNNY   78  68  71 SW7       30.03R
$$

CTZ002-004>006-009-010-012-RIZ004-006-007-MAZ004-011-015-131400-
SOUTHERN NEW ENGLAND
 IN CT

CITY           SKY/WX    TMP DP  RH WIND       PRES   REMARKS
BRADLEY INTL   PTSUNNY   75  66  73 S10       30.06S
HARTFORD       PTSUNNY   75  66  73 S10       30.07S
DANBURY        CLOUDY    73  65  75 S9        30.09F
WTRBRY/OXFORD  CLOUDY    70  64  83 SW7       30.12S
BRIDGEPORT     MOSUNNY   75  69  81 SW9       30.09S
MERIDEN        PTSUNNY   73  67  81 S10       30.09S
NEW HAVEN      PTSUNNY   75  68  78 SW7       30.10S
CHESTER        PTSUNNY   72  68  88 S8        30.11S
GROTON         MOSUNNY   70  67  90 S5        30.11R
WILLIMANTIC    PTSUNNY   75  65  70 S10       30.09F

 IN RI

CITY           SKY/WX    TMP DP  RH WIND       PRES   REMARKS
PROVIDENCE     MOSUNNY   76  63  64 S8        30.11S
BLOCK ISLAND   SUNNY     72  66  83 S13       30.13S
WESTERLY       SUNNY     73  66  78 S12       30.12F

 IN MA

CITY           SKY/WX    TMP DP  RH WIND       PRES   REMARKS
BOSTON         MOSUNNY   76  62  62 S12       30.07F
WORCESTER      MOSUNNY   72  61  68 SW15      30.09F
WESTFIELD      NOT AVBL
PROVINCETOWN   SUNNY     73  64  73 S14       30.11F
NANTUCKET      SUNNY     70  66  87 S10       30.15F
$$

ANZ330-335-338-340-345-350-353-355-131400-
COASTAL MARINE OBSERVATIONS


STATION/POSITION TIME  SKY/WX   TEMP    WIND        PRES    VSBY  WAVE
                                AIR SEA DIR/SP/G                  HT/PER
                 (UTC)          (F)     (DEG/KT/KT) (MB)    (MI)  (FT/S)
NY HARB ENTRANCE NOT AVBL
4S FIRE IS       1200               69                N/A           2/ 4
23SW MTP         1300            71 68              1019.4          2/ 7
HUDSON CANYON    1300            71 71  200/  8/ 10 1020.2          2/ 7
EXECUTION ROCKS  1300            72 67  200/ 10/ 12   N/A
WESTERN LI SOUND 1300            72     210/  6/  8   N/A           0
CENTRAL LI SOUND 1200            71 71  200/ 10/ 12   N/A           1
EASTERN LI SOUND 1200            74 65  220/  6/  8   N/A
ROBBINS REEF     1300            71     160/  9/ 10   N/A
$$


>>>>>>>>>>>>>>>>>>>>>>>>>>>> KEY <<<<<<<<<<<<<<<<<<<<<<<<<<<
>                                                          <
>     SKY/WX - SKY CONDITION/PRESENT WEATHER               <
>     TMP    - TEMPERATURE IN FAHRENHEIT                   <
>     DP     - DEWPOINT IN FAHRENHEIT                      <
>     RH     - RELATIVE HUMIDITY IN PERCENT                <
>     WIND   - DIRECTION AND SPEED IN MPH                  <
>     PRES   - MEAN SEA LEVEL PRESSURE IN INCHES OF HG     <
>     WCI    - WIND CHILL INDEX                            <
>     VSB    - VISIBILITY IN MILES                         <
>     HX     - HEAT INDEX                                  <
>     TC     - TEMPERATURE IN CELSIUS                      <
>     VRB    - VARIABLE WIND DIRECTION                     <
>                                                          <
>>>>>>>>>>>>>>>>>>>>>>>>>>>> KEY <<<<<<<<<<<<<<<<<<<<<<<<<<<




USA.gov is the U.S. government's official web portal to all federal, state and local government web resources and services.